Weather History for YPAD - October, 2013

Change the Weather History Date:

Sunday, October 6, 2013

  Actual Average Record
Temperature  
Mean Temperature 60 °F -  
Max Temperature 66 °F 71 °F 86 °F (2004)
Min Temperature 53 °F 52 °F 41 °F (2006)
Degree Days  
Heating Degree Days 6    
Growing Degree Days 10 (Base 50)    
Moisture  
Dew Point 50 °F    
Average Humidity 69    
Maximum Humidity 88    
Minimum Humidity 42    
Precipitation  
Precipitation 0.00 in 0.05 in - ()
Sea Level Pressure  
Sea Level Pressure 29.93 in    
Wind  
Wind Speed 7 mph ()    
Max Wind Speed 17 mph    
Max Gust Speed -    
Visibility 8.2 miles    
Events      
Averages and records for this station are not official NWS values.
T = Trace of Precipitation, MM = Missing Value Source: Averaged Metar Reports

Daily Weather History Graph

Daily Weather History Graph

Search for Another Location

Airport or City:

Trip Planner

Search our weather history database for the weather conditions in past years. The results will help you decide how hot, cold, wet, or windy it might be!

Date:

Astronomy

Oct. 06, 2013 Rise Set
Actual Time 6:45 AM ACDT 7:22 PM ACDT
Civil Twilight 6:20 AM ACDT 7:48 PM ACDT
Nautical Twilight 5:50 AM ACDT 8:18 PM ACDT
Astronomical Twilight 5:19 AM ACDT 8:49 PM ACDT
Moon 6:12 AM ACDT (10/6) 7:43 PM ACDT (10/6)
Length of Visible Light 13h 27m
Length of Day
12h 36m
New Moon, 1% of the Moon is Illuminated
Oct 6
New Moon
Oct 12
First Quarter
Oct 19
Full
Oct 27
Last Quarter
Nov 3
New

Hourly Weather History & Observations

Time (ACDT) Temp. Dew Point Humidity Pressure Visibility Wind Dir Wind Speed Gust Speed Precip Events Conditions
12:00 AM 57 °F 52 °F 79% 29.90 in 19 mi Calm Calm - -   Partly Cloudy
12:00 AM 57.2 °F 51.8 °F 82% 29.89 in 6.2 mi Calm Calm - N/A   Mostly Cloudy
12:30 AM 56 °F 52 °F 82% 29.88 in - Calm Calm - -  
12:30 AM 57.2 °F 51.8 °F 82% 29.86 in 6.2 mi Calm Calm - N/A   Mostly Cloudy
1:00 AM 57.2 °F 51.8 °F 82% 29.86 in 6.2 mi Calm Calm - N/A   Mostly Cloudy
1:30 AM 57.2 °F 51.8 °F 82% 29.86 in 6.2 mi Calm Calm - N/A   Mostly Cloudy
3:00 AM 57 °F 52 °F 77% 29.86 in 19 mi Calm Calm - -   Partly Cloudy
3:00 AM 57.2 °F 51.8 °F 82% 29.86 in 6.2 mi Calm Calm - N/A   Mostly Cloudy
3:30 AM 57.2 °F 51.8 °F 82% 29.86 in 6.2 mi NW 4.6 mph - N/A   Mostly Cloudy
4:00 AM 59.0 °F 51.8 °F 77% 29.86 in 6.2 mi NW 8.1 mph - N/A   Mostly Cloudy
4:30 AM 58 °F 52 °F 76% 29.88 in - West 12.7 mph - -  
4:30 AM 59.0 °F 51.8 °F 77% 29.86 in 6.2 mi West 12.7 mph - N/A   Mostly Cloudy
5:00 AM 59.0 °F 51.8 °F 77% 29.86 in 6.2 mi SW 10.4 mph - N/A   Mostly Cloudy
5:30 AM 57.2 °F 48.2 °F 72% 29.86 in 6.2 mi West 13.8 mph - N/A   Mostly Cloudy
6:00 AM 58 °F 48 °F 59% 29.88 in 19 mi WSW 12.7 mph - -   Partly Cloudy
6:00 AM 57.2 °F 48.2 °F 72% 29.86 in 6.2 mi WSW 12.7 mph - N/A   Mostly Cloudy
6:30 AM 57.2 °F 48.2 °F 72% 29.89 in 6.2 mi WSW 11.5 mph - N/A   Mostly Cloudy
7:00 AM 57.2 °F 48.2 °F 72% 29.89 in 6.2 mi WSW 17.3 mph - N/A   Mostly Cloudy
7:30 AM 58 °F 48 °F 59% 29.92 in - SW 12.7 mph - -  
7:30 AM 57.2 °F 48.2 °F 72% 29.92 in 6.2 mi SW 12.7 mph - N/A   Mostly Cloudy
8:00 AM 59.0 °F 46.4 °F 63% 29.92 in 6.2 mi SW 10.4 mph - N/A   Mostly Cloudy
8:30 AM 59.0 °F 46.4 °F 63% 29.92 in 6.2 mi West 8.1 mph - N/A   Mostly Cloudy
9:00 AM 60 °F 48 °F 54% 29.94 in 16 mi West 9.2 mph - -   Partly Cloudy
9:00 AM 60.8 °F 48.2 °F 63% 29.92 in 6.2 mi West 9.2 mph - N/A   Mostly Cloudy
9:30 AM 60.8 °F 48.2 °F 63% 29.92 in 6.2 mi NW 5.8 mph - N/A   Mostly Cloudy
10:00 AM 60.8 °F 46.4 °F 59% 29.95 in 6.2 mi West 9.2 mph - N/A   Mostly Cloudy
10:30 AM 63 °F 46 °F 43% 29.95 in - NW 9.2 mph - -  
10:30 AM 62.6 °F 46.4 °F 55% 29.95 in 6.2 mi NW 9.2 mph - N/A   Mostly Cloudy
11:00 AM 62.6 °F 46.4 °F 55% 29.95 in 6.2 mi WNW 10.4 mph - N/A   Mostly Cloudy
11:30 AM 64.4 °F 44.6 °F 49% 29.92 in 6.2 mi NW 10.4 mph - N/A   Partly Cloudy
12:00 PM 64 °F 47 °F 42% 29.94 in 16 mi NW 11.5 mph - -   Partly Cloudy
12:00 PM 64.4 °F 46.4 °F 52% 29.92 in 6.2 mi NW 11.5 mph - N/A   Mostly Cloudy
12:30 PM 62.6 °F 48.2 °F 59% 29.92 in 6.2 mi NW 12.7 mph - N/A   Mostly Cloudy
1:00 PM 62.6 °F 48.2 °F 59% 29.92 in 6.2 mi NW 10.4 mph - N/A   Mostly Cloudy
1:30 PM 64 °F 50 °F 50% 29.93 in - NW 12.7 mph - -  
1:30 PM 64.4 °F 50.0 °F 59% 29.92 in 6.2 mi NW 12.7 mph - N/A   Mostly Cloudy
2:00 PM 64.4 °F 51.8 °F 64% 29.92 in 6.2 mi West 11.5 mph - N/A   Mostly Cloudy
2:30 PM 64.4 °F 51.8 °F 64% 29.92 in 6.2 mi WSW 12.7 mph - N/A   Mostly Cloudy
3:00 PM 63 °F 50 °F 53% 29.93 in 19 mi WSW 12.7 mph - -   Partly Cloudy
3:00 PM 62.6 °F 50.0 °F 63% 29.92 in 6.2 mi WSW 12.7 mph - N/A   Scattered Clouds
3:30 PM 62.6 °F 50.0 °F 63% 29.92 in 6.2 mi SSW 15.0 mph - N/A   Partly Cloudy
4:00 PM 62.6 °F 50.0 °F 63% 29.92 in 6.2 mi SW 13.8 mph - N/A   Partly Cloudy
4:30 PM 63 °F 50 °F 53% 29.93 in - SW 13.8 mph - -  
4:30 PM 62.6 °F 50.0 °F 63% 29.92 in 6.2 mi SW 13.8 mph - N/A   Partly Cloudy
5:00 PM 62.6 °F 50.0 °F 63% 29.92 in 6.2 mi SW 12.7 mph - N/A   Partly Cloudy
5:30 PM 62.6 °F 50.0 °F 63% 29.92 in 6.2 mi SW 12.7 mph - N/A   Partly Cloudy
6:00 PM 61 °F 50 °F 58% 29.94 in 19 mi SW 13.8 mph - -   Partly Cloudy
6:00 PM 60.8 °F 50.0 °F 68% 29.92 in 6.2 mi SW 13.8 mph - N/A   Partly Cloudy
6:30 PM 60.8 °F 50.0 °F 68% 29.95 in 6.2 mi SSW 13.8 mph - N/A   Partly Cloudy
7:00 PM 60.8 °F 51.8 °F 72% 29.95 in 6.2 mi SSW 12.7 mph - N/A   Partly Cloudy
7:30 PM 59 °F 52 °F 70% 29.96 in - SSW 10.4 mph - -  
7:30 PM 59.0 °F 51.8 °F 77% 29.95 in 6.2 mi SSW 10.4 mph - N/A   Partly Cloudy
8:00 PM 59.0 °F 51.8 °F 77% 29.95 in 6.2 mi SSW 10.4 mph - N/A   Partly Cloudy
8:30 PM 59.0 °F 51.8 °F 77% 29.98 in 6.2 mi SSW 9.2 mph - N/A   Partly Cloudy
9:00 PM 59 °F 52 °F 70% 29.99 in 19 mi SSW 9.2 mph - -   Partly Cloudy
9:00 PM 59.0 °F 51.8 °F 77% 29.98 in 6.2 mi SSW 9.2 mph - N/A   Partly Cloudy
9:30 PM 59.0 °F 51.8 °F 77% 29.98 in 6.2 mi South 6.9 mph - N/A   Partly Cloudy
10:00 PM 57.2 °F 51.8 °F 82% 29.98 in 6.2 mi South 5.8 mph - N/A   Partly Cloudy
10:30 PM 56 °F 51 °F 79% 30.00 in - ESE 4.6 mph - -  
10:30 PM 55.4 °F 51.8 °F 88% 29.98 in 6.2 mi ESE 4.6 mph - N/A   Partly Cloudy
11:00 PM 55.4 °F 50.0 °F 82% 29.98 in 6.2 mi South 5.8 mph - N/A   Partly Cloudy
11:30 PM 55.4 °F 51.8 °F 88% 29.98 in 6.2 mi SSE 8.1 mph - N/A   Partly Cloudy
12:00 AM 54 °F 50 °F 81% 30.02 in 19 mi SSE 5.8 mph - -   Partly Cloudy
12:00 AM 53.6 °F 50.0 °F 88% 30.01 in - SSE 5.8 mph - N/A   Clear
12:30 AM 53.6 °F 50.0 °F 88% 30.01 in - SSE 5.8 mph - N/A   Clear